TimeCDT,TemperatureF,Dew PointF,Humidity,Sea Level PressureIn,VisibilityMPH,Wind Direction,Wind SpeedMPH,Gust SpeedMPH,PrecipitationIn,Events,Conditions,WindDirDegrees,DateUTC
12:15 AM,50.0,50.0,100,29.26,10.0,West,10.4,16.1,N/A,,Overcast,260,2012-10-18 05:15:00
12:35 AM,50.0,50.0,100,29.26,10.0,West,9.2,16.1,N/A,,Overcast,260,2012-10-18 05:35:00
12:55 AM,50.0,48.2,94,29.26,10.0,West,10.4,-,N/A,,Overcast,260,2012-10-18 05:55:00
1:15 AM,50.0,46.4,87,29.27,10.0,SW,9.2,-,N/A,,Overcast,220,2012-10-18 06:15:00
1:35 AM,50.0,48.2,94,29.28,10.0,SSW,6.9,-,N/A,,Overcast,210,2012-10-18 06:35:00
1:55 AM,50.0,48.2,94,29.29,10.0,SW,10.4,-,N/A,,Overcast,220,2012-10-18 06:55:00
2:15 AM,48.2,46.4,93,29.29,10.0,SW,9.2,-,N/A,Rain,Light Rain,220,2012-10-18 07:15:00
2:35 AM,48.2,46.4,93,29.29,10.0,SW,9.2,-,N/A,,Light Drizzle,220,2012-10-18 07:35:00
2:55 AM,46.4,44.6,93,29.29,10.0,SW,11.5,-,N/A,,Overcast,230,2012-10-18 07:55:00
3:15 AM,46.4,44.6,93,29.28,10.0,SW,12.7,-,N/A,,Overcast,230,2012-10-18 08:15:00
3:35 AM,46.4,44.6,93,29.28,10.0,SW,10.4,17.3,N/A,,Overcast,230,2012-10-18 08:35:00
3:55 AM,46.4,42.8,87,29.27,10.0,SW,9.2,-,N/A,,Overcast,230,2012-10-18 08:55:00
4:15 AM,44.6,42.8,93,29.27,10.0,SW,9.2,-,N/A,,Mostly Cloudy,230,2012-10-18 09:15:00
4:35 AM,44.6,42.8,93,29.27,10.0,SW,11.5,17.3,N/A,,Mostly Cloudy,230,2012-10-18 09:35:00
4:55 AM,44.6,42.8,93,29.28,10.0,SW,11.5,18.4,N/A,,Mostly Cloudy,230,2012-10-18 09:55:00
5:15 AM,44.6,42.8,93,29.28,10.0,SW,11.5,-,N/A,,Mostly Cloudy,230,2012-10-18 10:15:00
5:35 AM,44.6,42.8,93,29.29,10.0,SW,10.4,-,N/A,,Overcast,220,2012-10-18 10:35:00
6:45 AM,44.6,42.8,93,29.29,10.0,SW,11.5,-,N/A,,Overcast,220,2012-10-18 11:45:00
7:30 AM,44.6,42.8,93,29.30,10.0,ESE,9.2,-,N/A,,Overcast,120,2012-10-18 12:30:00
7:45 AM,44.6,42.8,93,29.30,5.0,SW,11.5,-,N/A,,Overcast,220,2012-10-18 12:45:00
8:45 AM,44.6,39.2,81,29.31,10.0,SW,11.5,-,N/A,,Overcast,220,2012-10-18 13:45:00
9:45 AM,44.6,39.2,81,29.32,10.0,SW,11.5,-,N/A,,Overcast,220,2012-10-18 14:45:00
10:45 AM,44.6,39.2,81,29.34,10.0,SSW,11.5,-,N/A,,Overcast,210,2012-10-18 15:45:00
11:45 AM,44.6,39.2,81,29.35,10.0,SSW,9.2,-,N/A,,Overcast,210,2012-10-18 16:45:00
12:45 PM,44.6,39.2,81,29.36,10.0,SSW,10.4,-,N/A,,Overcast,200,2012-10-18 17:45:00
1:45 PM,44.6,41.0,87,29.37,10.0,SSW,13.8,-,N/A,,Overcast,200,2012-10-18 18:45:00
2:45 PM,44.6,39.2,81,29.35,7.0,South,15.0,-,N/A,,Overcast,190,2012-10-18 19:45:00
3:45 PM,44.6,37.4,76,29.40,10.0,South,17.3,-,N/A,,Overcast,190,2012-10-18 20:45:00
4:45 PM,44.6,39.2,81,29.42,10.0,SSW,9.2,-,N/A,,Overcast,200,2012-10-18 21:45:00
6:45 PM,42.8,39.2,87,29.45,10.0,South,8.1,-,N/A,Rain,Light Rain,190,2012-10-18 23:45:00
7:45 PM,41.0,39.2,93,29.46,10.0,South,8.1,-,N/A,Rain,Light Rain,180,2012-10-19 00:45:00
8:45 PM,41.0,39.2,93,29.46,10.0,South,10.4,-,N/A,Rain,Light Rain,170,2012-10-19 01:45:00
9:15 PM,41.0,39.2,93,29.46,10.0,SSE,9.2,-,N/A,,Drizzle,160,2012-10-19 02:15:00
9:35 PM,41.0,39.2,93,29.46,10.0,South,8.1,-,N/A,,Drizzle,180,2012-10-19 02:35:00
9:55 PM,41.0,39.2,93,29.46,10.0,South,10.4,-,N/A,,Drizzle,170,2012-10-19 02:55:00
10:15 PM,41.0,37.4,87,29.46,10.0,South,6.9,10.4,N/A,,Light Drizzle,190,2012-10-19 03:15:00
10:55 PM,41.0,37.4,87,29.45,10.0,South,10.4,-,N/A,,Light Drizzle,170,2012-10-19 03:55:00